When you browse on this site, cookies collect data to enhance your experience and personalize the content and advertising you see.
Visit our Privacy Policy to learn more. By continuing to use the site, you agree to this use of cookies and data.

Hourly Weather Ali Bayramli

Today, 25 September, Friday

Time Temperature Precipitation Wind Pressure Humidity
00:00 +23°C° 0 mm 1 mps 759 mmHg 63%
01:00 +22°C° 0 mm 1 mps 759 mmHg 62%
02:00 +22°C° 0 mm 1 mps 759 mmHg 62%
03:00 +22°C° 0 mm 1 mps 759 mmHg 61%
04:00 +21°C° 0 mm 1 mps 759 mmHg 60%
05:00 +19°C° 0 mm 0 mps 759 mmHg 60%
06:00 +19°C° 0 mm 0 mps 759 mmHg 60%
07:00 +21°C° 0 mm 0 mps 759 mmHg 50%
08:00 +24°C° 0 mm 0 mps 759 mmHg 40%
09:00 +26°C° 0 mm 0 mps 759 mmHg 31%
10:00 +29°C° 0 mm 1 mps 758 mmHg 27%
11:00 +30°C° 0 mm 1 mps 758 mmHg 24%
12:00 +31°C° 0 mm 2 mps 758 mmHg 20%
13:00 +31°C° 0 mm 3 mps 758 mmHg 20%
14:00 +33°C° 0 mm 4 mps 757 mmHg 20%
15:00 +33°C° 0 mm 5 mps 757 mmHg 20%
16:00 +30°C° 0 mm 5 mps 757 mmHg 27%
17:00 +28°C° 0 mm 5 mps 757 mmHg 35%
18:00 +26°C° 0 mm 5 mps 757 mmHg 42%
19:00 +26°C° 0 mm 4 mps 757 mmHg 47%
20:00 +25°C° 0 mm 4 mps 757 mmHg 53%
21:00 +24°C° 0 mm 3 mps 757 mmHg 58%
22:00 +24°C° 0 mm 3 mps 757 mmHg 58%
23:00 +22°C° 0 mm 3 mps 757 mmHg 57%

Tomorrow, 26 September, Saturday

Time Temperature Precipitation Wind Pressure Humidity
00:00 +23°C° 0 mm 2 mps 757 mmHg 57%
01:00 +23°C° 0 mm 2 mps 756 mmHg 54%
02:00 +21°C° 0 mm 2 mps 756 mmHg 52%
03:00 +22°C° 0 mm 1 mps 756 mmHg 49%
04:00 +22°C° 0 mm 1 mps 756 mmHg 47%
05:00 +21°C° 0 mm 1 mps 756 mmHg 46%
06:00 +21°C° 0 mm 1 mps 756 mmHg 44%
07:00 +23°C° 0 mm 1 mps 756 mmHg 38%
08:00 +25°C° 0 mm 1 mps 757 mmHg 32%
09:00 +27°C° 0 mm 1 mps 757 mmHg 27%
10:00 +29°C° 0 mm 2 mps 757 mmHg 24%
11:00 +30°C° 0 mm 3 mps 756 mmHg 22%
12:00 +31°C° 0 mm 3 mps 756 mmHg 19%
13:00 +32°C° 0 mm 4 mps 756 mmHg 23%
14:00 +30°C° 0 mm 6 mps 756 mmHg 27%
15:00 +30°C° 0 mm 7 mps 755 mmHg 31%
16:00 +28°C° 0 mm 6 mps 756 mmHg 36%
17:00 +27°C° 0 mm 6 mps 756 mmHg 41%
18:00 +25°C° 0 mm 5 mps 756 mmHg 46%
19:00 +25°C° 0 mm 4 mps 756 mmHg 45%
20:00 +25°C° 0 mm 4 mps 757 mmHg 44%
21:00 +24°C° 0 mm 3 mps 757 mmHg 43%
22:00 +24°C° 0 mm 3 mps 757 mmHg 42%
23:00 +23°C° 0 mm 4 mps 757 mmHg 41%

Day after tomorrow, 27 September, Sunday

Time Temperature Precipitation Wind Pressure Humidity
00:00 +22°C° 0 mm 4 mps 757 mmHg 41%
01:00 +22°C° 0 mm 4 mps 757 mmHg 46%
02:00 +22°C° 0 mm 4 mps 757 mmHg 51%
03:00 +22°C° 0 mm 4 mps 757 mmHg 56%
04:00 +22°C° 0 mm 4 mps 758 mmHg 56%
05:00 +21°C° 0 mm 4 mps 758 mmHg 55%
06:00 +21°C° 0 mm 4 mps 759 mmHg 55%
07:00 +23°C° 0 mm 4 mps 759 mmHg 49%
08:00 +25°C° 0 mm 5 mps 759 mmHg 44%
09:00 +27°C° 0 mm 5 mps 760 mmHg 38%
10:00 +28°C° 0 mm 5 mps 760 mmHg 35%
11:00 +29°C° 0 mm 5 mps 760 mmHg 33%
12:00 +29°C° 0 mm 5 mps 760 mmHg 30%
13:00 +29°C° 0 mm 6 mps 760 mmHg 31%
14:00 +28°C° 0 mm 6 mps 760 mmHg 33%
15:00 +28°C° 0 mm 7 mps 760 mmHg 34%
16:00 +26°C° 0 mm 7 mps 760 mmHg 37%
17:00 +24°C° 0 mm 7 mps 761 mmHg 40%
18:00 +22°C° 0 mm 6 mps 761 mmHg 43%
19:00 +22°C° 0 mm 6 mps 762 mmHg 43%
20:00 +21°C° 0 mm 6 mps 762 mmHg 44%
21:00 +21°C° 0 mm 6 mps 763 mmHg 44%
22:00 +21°C° 0 mm 6 mps 763 mmHg 44%
23:00 +20°C° 0 mm 6 mps 763 mmHg 43%

28 September, Monday

Time Temperature Precipitation Wind Pressure Humidity
00:00 +20°C° 0 mm 6 mps 763 mmHg 43%
01:00 +20°C° 0 mm 5 mps 763 mmHg 43%
02:00 +20°C° 0 mm 5 mps 763 mmHg 44%
03:00 +20°C° 0 mm 5 mps 763 mmHg 44%
04:00 +19°C° 0 mm 4 mps 764 mmHg 45%
05:00 +19°C° 0 mm 4 mps 764 mmHg 46%
06:00 +19°C° 0 mm 4 mps 765 mmHg 47%
07:00 +21°C° 0 mm 4 mps 765 mmHg 42%
08:00 +22°C° 0 mm 4 mps 765 mmHg 36%
09:00 +25°C° 0 mm 5 mps 765 mmHg 30%
10:00 +26°C° 0 mm 5 mps 765 mmHg 29%
11:00 +27°C° 0 mm 5 mps 765 mmHg 27%
12:00 +27°C° 0 mm 5 mps 765 mmHg 25%
13:00 +27°C° 0 mm 6 mps 765 mmHg 26%
14:00 +27°C° 0 mm 6 mps 764 mmHg 28%
15:00 +26°C° 0 mm 6 mps 764 mmHg 29%
16:00 +24°C° 0 mm 6 mps 764 mmHg 34%
17:00 +22°C° 0 mm 5 mps 764 mmHg 38%
18:00 +21°C° 0 mm 4 mps 765 mmHg 43%
19:00 +21°C° 0 mm 4 mps 765 mmHg 44%
20:00 +20°C° 0 mm 4 mps 765 mmHg 45%
21:00 +20°C° 0 mm 3 mps 765 mmHg 46%
22:00 +19°C° 0 mm 3 mps 765 mmHg 46%
23:00 +19°C° 0 mm 3 mps 765 mmHg 46%

29 September, Tuesday

Time Temperature Precipitation Wind Pressure Humidity
00:00 +19°C° 0 mm 3 mps 765 mmHg 46%
01:00 +18°C° 0 mm 2 mps 764 mmHg 45%
02:00 +18°C° 0 mm 2 mps 764 mmHg 44%
03:00 +18°C° 0 mm 2 mps 764 mmHg 44%
04:00 +18°C° 0 mm 2 mps 764 mmHg 45%
05:00 +17°C° 0 mm 2 mps 764 mmHg 45%
06:00 +17°C° 0 mm 2 mps 764 mmHg 46%
07:00 +19°C° 0 mm 2 mps 764 mmHg 43%
08:00 +21°C° 0 mm 2 mps 764 mmHg 41%
09:00 +24°C° 0 mm 2 mps 764 mmHg 38%
10:00 +26°C° 0 mm 3 mps 764 mmHg 36%
11:00 +27°C° 0 mm 3 mps 763 mmHg 33%
12:00 +28°C° 0 mm 4 mps 763 mmHg 31%
13:00 +27°C° 0 mm 4 mps 763 mmHg 32%
14:00 +27°C° 0 mm 5 mps 762 mmHg 34%
15:00 +27°C° 0 mm 6 mps 762 mmHg 35%
16:00 +26°C° 0 mm 6 mps 761 mmHg 40%
17:00 +23°C° 0 mm 5 mps 761 mmHg 45%
18:00 +22°C° 0 mm 5 mps 761 mmHg 50%
19:00 +21°C° 0 mm 5 mps 761 mmHg 53%
20:00 +21°C° 0 mm 4 mps 761 mmHg 55%
21:00 +20°C° 0 mm 4 mps 761 mmHg 58%
22:00 +20°C° 0 mm 4 mps 761 mmHg 58%
23:00 +19°C° 0 mm 3 mps 761 mmHg 58%

30 September, Wednesday

Time Temperature Precipitation Wind Pressure Humidity
00:00 +19°C° 0 mm 3 mps 760 mmHg 58%
01:00 +19°C° 0 mm 2 mps 760 mmHg 58%
02:00 +18°C° 0 mm 2 mps 760 mmHg 58%
03:00 +18°C° 0 mm 2 mps 759 mmHg 57%
04:00 +18°C° 0 mm 2 mps 759 mmHg 57%
05:00 +18°C° 0 mm 2 mps 759 mmHg 57%
06:00 +18°C° 0 mm 1 mps 759 mmHg 56%
07:00 +19°C° 0 mm 2 mps 759 mmHg 50%
08:00 +22°C° 0 mm 3 mps 759 mmHg 44%
09:00 +25°C° 0 mm 3 mps 759 mmHg 37%
10:00 +26°C° 0 mm 4 mps 759 mmHg 36%
11:00 +27°C° 0 mm 5 mps 758 mmHg 34%
12:00 +27°C° 0 mm 5 mps 758 mmHg 33%
13:00 +27°C° 0 mm 6 mps 758 mmHg 33%
14:00 +27°C° 0 mm 6 mps 757 mmHg 34%
15:00 +26°C° 0 mm 6 mps 757 mmHg 34%
16:00 +24°C° 0 mm 6 mps 757 mmHg 38%
17:00 +23°C° 0 mm 5 mps 757 mmHg 42%
18:00 +21°C° 0 mm 5 mps 757 mmHg 46%
19:00 +21°C° 0 mm 4 mps 757 mmHg 47%
20:00 +20°C° 0 mm 3 mps 757 mmHg 49%
21:00 +20°C° 0 mm 3 mps 758 mmHg 50%
22:00 +19°C° 0 mm 2 mps 757 mmHg 51%
23:00 +19°C° 0 mm 2 mps 757 mmHg 52%
Show more